UAL188 EDDB-KLAX

Flight info

Callsign UAL188
Flight time N/A
Altitude 36000
Route SUKIP4B SUKIP Y206 BUREL P203 HLZ L980 OSNAD DCT RENEQ DCT BEVAM DCT IBROD DCT SUNOT/M085F370 DCT 58N020W 58N030W 58N040W 57N050W DCT HOIST/N0487F380 DCT 5430N06000W 53N070W 51N080W 4830N09000W/N0490F400 DCT KP12G DCT KP84A DCT KD63U DCT KU51Q DCT PROMT Q88 HAKMN ANJLL4
Aircraft B78X/H-SDE1E2E3FGHIJ2J3J4J5M1RWXY/LB1D1

Departure

Time 2026-05-05 20:21
Airport Berlin Brandenburg Airport (EDDB)

Arrival

Time N/A
Airport Los Angeles International Airport (KLAX)
Time Latitude Longitude Altitude Speed Heading
2026-05-05 19:47 52.36039 13.50368 164 ft 0 kts 250°
2026-05-05 20:01 52.36040 13.50371 145 ft 1 kts 250°
2026-05-05 20:02 52.36042 13.50381 145 ft 1 kts 253°
2026-05-05 20:02 52.36045 13.50392 164 ft 1 kts 264°
2026-05-05 20:02 52.36045 13.50395 164 ft 0 kts 268°
2026-05-05 20:02 52.36045 13.50402 164 ft 1 kts 269°
2026-05-05 20:03 52.36045 13.50414 164 ft 1 kts 235°
2026-05-05 20:03 52.36048 13.50424 164 ft 1 kts 221°
2026-05-05 20:03 52.36060 13.50439 164 ft 2 kts 196°
2026-05-05 20:03 52.36074 13.50446 164 ft 2 kts 186°
2026-05-05 20:04 52.36088 13.50449 164 ft 2 kts 163°
2026-05-05 20:04 52.36093 13.50447 164 ft 0 kts 156°
2026-05-05 20:07 52.36089 13.50450 164 ft 2 kts 154°
2026-05-05 20:07 52.36061 13.50482 160 ft 8 kts 148°
2026-05-05 20:07 52.36031 13.50510 164 ft 0 kts 150°
2026-05-05 20:08 52.36014 13.50542 164 ft 9 kts 127°
2026-05-05 20:08 52.35966 13.50601 164 ft 8 kts 149°
2026-05-05 20:08 52.35928 13.50673 164 ft 8 kts 116°
2026-05-05 20:08 52.35919 13.50705 164 ft 0 kts 121°
2026-05-05 20:09 52.35909 13.50723 164 ft 4 kts 131°
2026-05-05 20:09 52.35878 13.50760 164 ft 7 kts 146°
2026-05-05 20:09 52.35822 13.50803 164 ft 10 kts 160°
2026-05-05 20:09 52.35755 13.50795 164 ft 10 kts 207°
2026-05-05 20:10 52.35704 13.50711 164 ft 11 kts 237°
2026-05-05 20:10 52.35670 13.50594 164 ft 12 kts 248°
2026-05-05 20:10 52.35640 13.50462 164 ft 13 kts 249°
2026-05-05 20:10 52.35606 13.50317 164 ft 14 kts 249°
2026-05-05 20:11 52.35570 13.50161 164 ft 15 kts 249°
2026-05-05 20:11 52.35530 13.49998 164 ft 16 kts 248°
2026-05-05 20:11 52.35489 13.49824 164 ft 17 kts 249°
2026-05-05 20:11 52.35445 13.49641 164 ft 18 kts 249°
2026-05-05 20:12 52.35400 13.49451 164 ft 18 kts 249°
2026-05-05 20:12 52.35353 13.49255 164 ft 19 kts 249°
2026-05-05 20:12 52.35305 13.49051 164 ft 20 kts 249°
2026-05-05 20:12 52.35255 13.48843 164 ft 20 kts 249°
2026-05-05 20:13 52.35203 13.48625 163 ft 21 kts 249°
2026-05-05 20:13 52.35150 13.48401 163 ft 21 kts 249°
2026-05-05 20:13 52.35097 13.48169 163 ft 22 kts 249°
2026-05-05 20:13 52.35042 13.47933 163 ft 22 kts 249°
2026-05-05 20:14 52.34984 13.47693 163 ft 23 kts 249°
2026-05-05 20:14 52.34926 13.47449 163 ft 23 kts 249°
2026-05-05 20:14 52.34866 13.47200 163 ft 24 kts 249°
2026-05-05 20:14 52.34812 13.46973 163 ft 18 kts 249°
2026-05-05 20:15 52.34759 13.46813 163 ft 15 kts 220°
2026-05-05 20:15 52.34676 13.46810 162 ft 12 kts 160°
2026-05-05 20:15 52.34586 13.46866 158 ft 14 kts 150°
2026-05-05 20:15 52.34571 13.46937 158 ft 0 kts 81°
2026-05-05 20:16 52.34571 13.46940 158 ft 0 kts 80°
2026-05-05 20:16 52.34571 13.46946 158 ft 1 kts 80°
2026-05-05 20:16 52.34572 13.46947 158 ft 0 kts 80°
2026-05-05 20:19 52.34598 13.47070 157 ft 28 kts 69°
2026-05-05 20:20 52.34761 13.47756 158 ft 102 kts 69°
2026-05-05 20:20 52.35100 13.49201 162 ft 168 kts 69°
2026-05-05 20:20 52.35551 13.51148 567 ft 194 kts 69°
2026-05-05 20:20 52.35816 13.53536 754 ft 236 kts 99°
2026-05-05 20:21 52.34950 13.55860 1557 ft 254 kts 143°
2026-05-05 20:21 52.33715 13.56718 2506 ft 255 kts 174°
2026-05-05 20:21 52.32064 13.56167 3906 ft 239 kts 215°
2026-05-05 20:21 52.30925 13.54342 5275 ft 221 kts 232°
2026-05-05 20:22 52.29914 13.52469 6347 ft 221 kts 225°
2026-05-05 20:22 52.28718 13.50782 7062 ft 234 kts 219°
2026-05-05 20:22 52.27386 13.49118 7792 ft 244 kts 223°
2026-05-05 20:22 52.26504 13.46782 8648 ft 246 kts 253°
2026-05-05 20:23 52.26323 13.44000 9554 ft 251 kts 273°
2026-05-05 20:23 52.26352 13.41124 10376 ft 255 kts 271°
2026-05-05 20:23 52.26499 13.38255 11212 ft 259 kts 275°
2026-05-05 20:23 52.26696 13.35296 11992 ft 266 kts 274°
2026-05-05 20:24 52.26852 13.32222 12677 ft 278 kts 272°
2026-05-05 20:24 52.26993 13.29011 13440 ft 286 kts 272°
2026-05-05 20:24 52.27146 13.25733 14223 ft 291 kts 272°
2026-05-05 20:24 52.27309 13.22408 15017 ft 295 kts 272°
2026-05-05 20:25 52.27470 13.19032 15833 ft 299 kts 272°
2026-05-05 20:25 52.27626 13.15716 16641 ft 303 kts 272°
2026-05-05 20:25 52.27787 13.12240 17362 ft 311 kts 272°
2026-05-05 20:25 52.27955 13.08635 17906 ft 323 kts 272°
2026-05-05 20:26 52.28126 13.04934 18514 ft 331 kts 272°
2026-05-05 20:26 52.28300 13.01154 19148 ft 336 kts 272°
2026-05-05 20:26 52.28475 12.97305 19803 ft 341 kts 272°
2026-05-05 20:26 52.28649 12.93459 20462 ft 346 kts 272°
2026-05-05 20:27 52.28826 12.89515 21112 ft 350 kts 271°
2026-05-05 20:27 52.29004 12.85526 21768 ft 354 kts 271°
2026-05-05 20:27 52.29183 12.81483 22428 ft 358 kts 271°
2026-05-05 20:27 52.29362 12.77392 23063 ft 362 kts 271°
2026-05-05 20:28 52.29542 12.73265 23662 ft 366 kts 271°
2026-05-05 20:28 52.29721 12.69097 24192 ft 368 kts 271°
2026-05-05 20:28 52.29899 12.64947 24733 ft 371 kts 271°
2026-05-05 20:28 52.30079 12.60710 25279 ft 373 kts 271°
2026-05-05 20:29 52.30256 12.56511 25810 ft 375 kts 271°
2026-05-05 20:29 52.30433 12.52254 26341 ft 377 kts 271°
2026-05-05 20:29 52.30611 12.47959 26890 ft 379 kts 271°
2026-05-05 20:29 52.30788 12.43652 27445 ft 381 kts 270°
2026-05-05 20:30 52.30964 12.39313 27970 ft 383 kts 270°
2026-05-05 20:30 52.31139 12.34951 28475 ft 385 kts 270°
2026-05-05 20:30 52.31314 12.30575 28978 ft 387 kts 270°
2026-05-05 20:30 52.31488 12.26172 29464 ft 389 kts 270°
2026-05-05 20:31 52.31659 12.21803 29930 ft 390 kts 270°
2026-05-05 20:31 52.31831 12.17361 30334 ft 392 kts 270°
2026-05-05 20:31 52.32002 12.12902 30731 ft 394 kts 270°
2026-05-05 20:31 52.32173 12.08415 31134 ft 396 kts 270°
2026-05-05 20:32 52.32342 12.03910 31509 ft 398 kts 270°
2026-05-05 20:32 52.32511 11.99374 31887 ft 400 kts 270°
2026-05-05 20:32 52.32679 11.94827 32282 ft 401 kts 270°
2026-05-05 20:32 52.32845 11.90249 32634 ft 403 kts 270°
2026-05-05 20:33 52.32955 11.87210 32917 ft 403 kts 270°
2026-05-05 20:33 52.33173 11.81133 33397 ft 405 kts 270°
2026-05-05 20:33 52.33335 11.76527 33777 ft 406 kts 269°
2026-05-05 20:33 52.33442 11.73463 34013 ft 406 kts 269°
2026-05-05 20:34 52.33656 11.67281 34466 ft 407 kts 270°
2026-05-05 20:34 52.33761 11.64215 34681 ft 407 kts 270°
2026-05-05 20:34 52.33969 11.58064 35127 ft 409 kts 270°
2026-05-05 20:34 52.34073 11.54929 35335 ft 409 kts 270°
2026-05-05 20:35 52.34297 11.50334 35651 ft 412 kts 276°
2026-05-05 20:35 52.34943 11.45742 35882 ft 420 kts 284°
2026-05-05 20:35 52.36066 11.41284 35882 ft 430 kts 292°
2026-05-05 20:36 52.38781 11.32344 35892 ft 445 kts 291°
2026-05-05 20:36 52.41611 11.23117 35893 ft 457 kts 291°
2026-05-05 20:37 52.44425 11.13847 35894 ft 456 kts 291°
2026-05-05 20:37 52.47252 11.04515 35891 ft 457 kts 291°
2026-05-05 20:38 52.50082 10.95135 35906 ft 459 kts 291°
2026-05-05 20:38 52.52901 10.85755 35894 ft 457 kts 291°
2026-05-05 20:39 52.55709 10.76370 35896 ft 457 kts 291°
2026-05-05 20:39 52.58492 10.67037 35899 ft 457 kts 291°
2026-05-05 20:40 52.61285 10.57629 35897 ft 457 kts 291°
2026-05-05 20:40 52.64088 10.48151 35904 ft 460 kts 291°
2026-05-05 20:41 52.66860 10.38748 35899 ft 459 kts 291°
2026-05-05 20:41 52.69637 10.29282 35887 ft 459 kts 291°
2026-05-05 20:42 52.72406 10.19807 35894 ft 458 kts 291°
2026-05-05 20:42 52.75170 10.10311 35891 ft 459 kts 291°
2026-05-05 20:43 52.77942 10.00751 35886 ft 461 kts 291°
2026-05-05 20:43 52.80694 9.91222 35885 ft 461 kts 291°
2026-05-05 20:44 52.83454 9.81627 35885 ft 460 kts 291°
2026-05-05 20:44 52.86175 9.72126 35887 ft 458 kts 291°
2026-05-05 20:45 52.90242 9.57850 35891 ft 457 kts 291°
2026-05-05 20:45 52.92948 9.48311 35885 ft 456 kts 291°
2026-05-05 20:46 52.95624 9.38831 35884 ft 456 kts 291°
2026-05-05 20:46 52.98315 9.29266 35894 ft 456 kts 291°
2026-05-05 20:47 53.00980 9.19750 35902 ft 456 kts 291°
2026-05-05 20:47 53.03657 9.10154 35910 ft 457 kts 291°
2026-05-05 20:48 53.06320 9.00568 35917 ft 458 kts 291°
2026-05-05 20:48 53.08974 8.90976 35918 ft 457 kts 290°
2026-05-05 20:49 53.11625 8.81352 35916 ft 457 kts 290°
2026-05-05 20:49 53.14257 8.71758 35915 ft 457 kts 290°
2026-05-05 20:50 53.16904 8.62067 35917 ft 461 kts 290°
2026-05-05 20:50 53.19538 8.52392 35913 ft 459 kts 290°
2026-05-05 20:51 53.22170 8.42674 35900 ft 459 kts 290°
2026-05-05 20:51 53.24782 8.32995 35910 ft 459 kts 290°
2026-05-05 20:52 53.27402 8.23238 35908 ft 459 kts 290°
2026-05-05 20:52 53.30026 8.13429 35917 ft 463 kts 289°
2026-05-05 20:53 53.32633 8.03645 35920 ft 462 kts 289°
2026-05-05 20:53 53.35242 7.93804 35919 ft 462 kts 289°
2026-05-05 20:54 53.37829 7.84008 35922 ft 462 kts 289°
2026-05-05 20:54 53.40412 7.74183 35927 ft 462 kts 289°
2026-05-05 20:55 53.43011 7.64252 35927 ft 464 kts 289°
2026-05-05 20:55 53.45591 7.54356 35948 ft 464 kts 289°
2026-05-05 20:56 53.48171 7.44411 35935 ft 464 kts 289°
2026-05-05 20:56 53.50732 7.34501 35935 ft 463 kts 289°
2026-05-05 20:57 53.53289 7.24559 35954 ft 461 kts 289°
2026-05-05 20:57 53.55830 7.14632 35940 ft 464 kts 289°
2026-05-05 20:58 53.58078 7.05825 35945 ft 463 kts 289°
2026-05-05 20:58 53.60595 6.95905 35945 ft 463 kts 289°
2026-05-05 20:59 53.63128 6.85888 35949 ft 463 kts 288°
2026-05-05 20:59 53.64166 6.81767 35950 ft 464 kts 288°
2026-05-05 21:00 53.64637 6.79897 35951 ft 464 kts 288°
2026-05-05 21:00 53.66515 6.72412 35948 ft 467 kts 289°
2026-05-05 21:03 53.67624 6.67982 35946 ft 468 kts 289°
2026-05-05 21:03 53.72680 6.47683 35938 ft 467 kts 289°
2026-05-05 21:04 53.77688 6.27394 35942 ft 467 kts 288°
2026-05-05 21:04 53.82653 6.07087 35957 ft 469 kts 289°
2026-05-05 21:05 53.87573 5.86781 35965 ft 465 kts 289°
2026-05-05 21:05 53.92469 5.66374 35978 ft 467 kts 289°
2026-05-05 21:06 53.97334 5.45909 35975 ft 466 kts 289°
2026-05-05 21:06 54.02124 5.25566 35990 ft 466 kts 289°
2026-05-05 21:07 54.06944 5.04899 35986 ft 469 kts 289°
2026-05-05 21:07 54.11743 4.84123 35986 ft 470 kts 289°
2026-05-05 21:08 54.16468 4.63460 35986 ft 471 kts 289°
2026-05-05 21:08 54.21214 4.42510 35988 ft 472 kts 289°
2026-05-05 21:09 54.27019 4.22407 35990 ft 476 kts 302°
2026-05-05 21:09 54.34461 4.03691 35993 ft 477 kts 302°
2026-05-05 21:10 54.41860 3.84913 35983 ft 476 kts 302°
2026-05-05 21:10 54.49226 3.66060 35989 ft 473 kts 301°
2026-05-05 21:11 54.56553 3.47160 35990 ft 473 kts 301°
2026-05-05 21:11 54.63826 3.28254 35980 ft 473 kts 301°
2026-05-05 21:12 54.71041 3.09356 35981 ft 474 kts 301°
2026-05-05 21:12 54.78238 2.90355 35974 ft 471 kts 301°
2026-05-05 21:13 54.85403 2.71300 35979 ft 470 kts 300°
2026-05-05 21:13 54.92482 2.52326 35971 ft 470 kts 300°
2026-05-05 21:14 54.99534 2.33278 35980 ft 469 kts 300°
2026-05-05 21:14 55.06547 2.14185 35979 ft 466 kts 300°
2026-05-05 21:15 55.13523 1.95048 35987 ft 466 kts 300°
2026-05-05 21:15 55.20414 1.75995 35983 ft 465 kts 300°
2026-05-05 21:16 55.27319 1.56755 35987 ft 462 kts 299°
2026-05-05 21:16 55.34109 1.37687 35992 ft 462 kts 299°
2026-05-05 21:17 55.40914 1.18421 36003 ft 463 kts 299°
2026-05-05 21:17 55.47656 0.99189 36024 ft 463 kts 298°
2026-05-05 21:18 55.54416 0.79749 36025 ft 461 kts 298°
2026-05-05 21:18 55.61064 0.60479 36033 ft 461 kts 298°
2026-05-05 21:19 55.67703 0.41077 36042 ft 461 kts 298°
2026-05-05 21:19 55.72956 0.24660 36063 ft 457 kts 288°
2026-05-05 21:20 55.76189 -0.00947 36064 ft 456 kts 280°
2026-05-05 21:20 55.78309 -0.19267 36055 ft 456 kts 280°
2026-05-05 21:21 55.80829 -0.41397 36056 ft 456 kts 279°
2026-05-05 21:21 55.83311 -0.63583 36063 ft 456 kts 279°
2026-05-05 21:22 55.85734 -0.85639 36070 ft 456 kts 279°
2026-05-05 21:22 55.88134 -1.07867 36077 ft 456 kts 279°
2026-05-05 21:23 55.90485 -1.30042 36086 ft 457 kts 279°
2026-05-05 21:23 55.92801 -1.52295 36091 ft 457 kts 279°
2026-05-05 21:24 55.95085 -1.74650 36095 ft 457 kts 279°
2026-05-05 21:24 55.97315 -1.96895 36098 ft 457 kts 278°
2026-05-05 21:25 55.99518 -2.19299 36104 ft 457 kts 278°
2026-05-05 21:25 56.01669 -2.41611 36107 ft 456 kts 278°
2026-05-05 21:26 56.03787 -2.64034 36109 ft 457 kts 278°
2026-05-05 21:26 56.05858 -2.86402 36110 ft 457 kts 278°
2026-05-05 21:27 56.07893 -3.08850 36108 ft 456 kts 278°
2026-05-05 21:27 56.09893 -3.31383 36110 ft 456 kts 278°
2026-05-05 21:28 56.11835 -3.53734 36103 ft 457 kts 278°
2026-05-05 21:28 56.13751 -3.76289 36092 ft 457 kts 277°
2026-05-05 21:29 56.15616 -3.98751 36091 ft 457 kts 277°
2026-05-05 21:29 56.17452 -4.21373 36085 ft 456 kts 277°
2026-05-05 21:30 56.19237 -4.43886 36086 ft 457 kts 277°
2026-05-05 21:30 56.20988 -4.66534 36077 ft 458 kts 277°
2026-05-05 21:31 56.22694 -4.89138 36071 ft 457 kts 277°
2026-05-05 21:31 56.24366 -5.11853 36067 ft 457 kts 277°
2026-05-05 21:32 56.25986 -5.34454 36075 ft 457 kts 277°
2026-05-05 21:32 56.27566 -5.57098 36078 ft 457 kts 276°
2026-05-05 21:33 56.29115 -5.79903 36087 ft 457 kts 276°
2026-05-05 21:33 56.30608 -6.02519 36084 ft 456 kts 276°
2026-05-05 21:34 56.32063 -6.25187 36096 ft 456 kts 276°
2026-05-05 21:34 56.33482 -6.47974 36105 ft 456 kts 276°
2026-05-05 21:35 56.34851 -6.70637 36129 ft 456 kts 276°
2026-05-05 21:35 56.36188 -6.93478 36130 ft 457 kts 275°
2026-05-05 21:36 56.37478 -7.16255 36136 ft 457 kts 275°
2026-05-05 21:36 56.38728 -7.39073 36136 ft 456 kts 275°
2026-05-05 21:37 56.39930 -7.61781 36144 ft 457 kts 275°
2026-05-05 21:37 56.41100 -7.84696 36149 ft 457 kts 275°
2026-05-05 21:38 56.42218 -8.07445 36152 ft 457 kts 274°
2026-05-05 21:38 56.43307 -8.30450 36157 ft 459 kts 274°
2026-05-05 21:39 56.44353 -8.53470 36165 ft 458 kts 274°
2026-05-05 21:39 56.45354 -8.76457 36159 ft 459 kts 274°
2026-05-05 21:40 56.46310 -8.99372 36164 ft 458 kts 274°
2026-05-05 21:40 56.47228 -9.22434 36166 ft 459 kts 274°
2026-05-05 21:41 56.48104 -9.45491 36165 ft 458 kts 274°
2026-05-05 21:41 56.48931 -9.68395 36180 ft 458 kts 274°
2026-05-05 21:42 56.49722 -9.91519 36178 ft 459 kts 274°
2026-05-05 21:42 56.51743 -10.14345 36182 ft 460 kts 282°
2026-05-05 21:43 56.54431 -10.36910 36193 ft 460 kts 282°
2026-05-05 21:43 56.57082 -10.59523 36189 ft 459 kts 282°
2026-05-05 21:44 56.59705 -10.82263 36188 ft 459 kts 281°
2026-05-05 21:44 56.62268 -11.04872 36201 ft 459 kts 281°
2026-05-05 21:45 56.64805 -11.27651 36184 ft 459 kts 281°
2026-05-05 21:45 56.67295 -11.50404 36192 ft 460 kts 281°
2026-05-05 21:46 56.69758 -11.73324 36178 ft 461 kts 281°
2026-05-05 21:46 56.72181 -11.96294 36188 ft 461 kts 281°
2026-05-05 21:47 56.74562 -12.19299 36187 ft 461 kts 281°
2026-05-05 21:47 56.76888 -12.42209 36192 ft 461 kts 280°
2026-05-05 21:48 56.79164 -12.65056 36192 ft 459 kts 280°
2026-05-05 21:48 56.81409 -12.88050 36193 ft 459 kts 280°
2026-05-05 21:49 56.83610 -13.11055 36189 ft 460 kts 280°
2026-05-05 21:49 56.85764 -13.34043 36195 ft 460 kts 279°
2026-05-05 21:50 56.87884 -13.57141 36194 ft 460 kts 279°
2026-05-05 21:50 56.89951 -13.80141 36193 ft 460 kts 279°
2026-05-05 21:51 56.91968 -14.03089 36192 ft 459 kts 279°
2026-05-05 21:51 56.93956 -14.26208 36185 ft 459 kts 279°
2026-05-05 21:52 56.96860 -14.60957 36190 ft 460 kts 279°
2026-05-05 21:53 56.98734 -14.84054 36190 ft 459 kts 278°
2026-05-05 21:53 57.00903 -15.07258 36198 ft 461 kts 284°
2026-05-05 21:54 57.03779 -15.30202 36204 ft 463 kts 283°
2026-05-05 21:54 57.06627 -15.53340 36188 ft 463 kts 283°
2026-05-05 21:55 57.09432 -15.76532 36189 ft 464 kts 283°
2026-05-05 21:55 57.12180 -15.99648 36195 ft 464 kts 283°
2026-05-05 21:56 57.14897 -16.22900 36212 ft 465 kts 283°
2026-05-05 21:56 57.17580 -16.46265 36214 ft 466 kts 283°
2026-05-05 21:57 57.20211 -16.69588 36215 ft 465 kts 283°
2026-05-05 21:57 57.22808 -16.93024 36205 ft 466 kts 283°
2026-05-05 21:58 57.25346 -17.16359 36209 ft 466 kts 283°
2026-05-05 21:58 57.27864 -17.39943 36226 ft 466 kts 283°
2026-05-05 21:59 57.30326 -17.63442 36216 ft 465 kts 283°
2026-05-05 21:59 57.32730 -17.86839 36220 ft 466 kts 283°
2026-05-05 22:00 57.35114 -18.10495 36228 ft 466 kts 282°
2026-05-05 22:00 57.37442 -18.34070 36234 ft 467 kts 283°
2026-05-05 22:01 57.39736 -18.57777 36234 ft 467 kts 282°
2026-05-05 22:01 57.41975 -18.81403 36236 ft 467 kts 282°
2026-05-05 22:02 57.44182 -19.05186 36243 ft 467 kts 282°
2026-05-05 22:02 57.46332 -19.28871 36247 ft 467 kts 282°
2026-05-05 22:03 57.48447 -19.52684 36249 ft 466 kts 282°
2026-05-05 22:03 57.50517 -19.76538 36253 ft 465 kts 282°
2026-05-05 22:04 57.52526 -20.00209 36253 ft 465 kts 282°
2026-05-05 22:04 57.54497 -20.23991 36227 ft 464 kts 282°
2026-05-05 22:05 57.56420 -20.47765 36258 ft 466 kts 282°
2026-05-05 22:05 57.58317 -20.71783 36249 ft 467 kts 282°
2026-05-05 22:06 57.60151 -20.95632 36253 ft 464 kts 282°
2026-05-05 22:06 57.61948 -21.19575 36252 ft 465 kts 282°
2026-05-05 22:07 57.63694 -21.43479 36254 ft 465 kts 282°
2026-05-05 22:07 57.65388 -21.67302 36250 ft 465 kts 282°
2026-05-05 22:08 57.67057 -21.91454 36251 ft 467 kts 281°
2026-05-05 22:08 57.68667 -22.15414 36255 ft 465 kts 281°
2026-05-05 22:09 57.69974 -22.35401 36250 ft 465 kts 281°
2026-05-05 22:09 57.71753 -22.63439 36248 ft 467 kts 281°
2026-05-05 22:10 57.72990 -22.83562 36248 ft 467 kts 281°
2026-05-05 22:10 57.74667 -23.11713 36253 ft 468 kts 281°
2026-05-05 22:11 57.75826 -23.31857 36253 ft 464 kts 281°
2026-05-05 22:11 57.77174 -23.55999 36247 ft 464 kts 281°
2026-05-05 22:12 57.78465 -23.79947 36233 ft 466 kts 280°
2026-05-05 22:12 57.79723 -24.04176 36239 ft 465 kts 280°
2026-05-05 22:13 57.80927 -24.28248 36234 ft 465 kts 280°
2026-05-05 22:13 57.82089 -24.52417 36238 ft 464 kts 280°
2026-05-05 22:14 57.83201 -24.76515 36239 ft 463 kts 279°
2026-05-05 22:14 57.84269 -25.00667 36239 ft 464 kts 279°
2026-05-05 22:15 57.85288 -25.24744 36240 ft 464 kts 279°
2026-05-05 22:15 57.86262 -25.48854 36239 ft 465 kts 279°
2026-05-05 22:16 57.87192 -25.73043 36244 ft 463 kts 279°
2026-05-05 22:16 57.88074 -25.97182 36245 ft 462 kts 278°
2026-05-05 22:17 57.88907 -26.21204 36245 ft 463 kts 278°
2026-05-05 22:17 57.89700 -26.45448 36248 ft 464 kts 278°
2026-05-05 22:18 57.90443 -26.69567 36236 ft 465 kts 278°
2026-05-05 22:18 57.91144 -26.93796 36241 ft 462 kts 277°
2026-05-05 22:19 57.91795 -27.17954 36240 ft 461 kts 277°
2026-05-05 22:19 57.92398 -27.41996 36232 ft 463 kts 277°
2026-05-05 22:20 57.92962 -27.66317 36238 ft 463 kts 277°
2026-05-05 22:20 57.93475 -27.90422 36232 ft 463 kts 277°
2026-05-05 22:21 57.93946 -28.14765 36241 ft 464 kts 276°
2026-05-05 22:21 57.94372 -28.39144 36237 ft 465 kts 276°
2026-05-05 22:22 57.94749 -28.63409 36201 ft 465 kts 276°
2026-05-05 22:22 57.95082 -28.87899 36231 ft 467 kts 275°
2026-05-05 22:23 57.95368 -29.12256 36235 ft 467 kts 275°
2026-05-05 22:23 57.95608 -29.36737 36229 ft 465 kts 275°
2026-05-05 22:24 57.95799 -29.61153 36232 ft 468 kts 274°
2026-05-05 22:24 57.95945 -29.85736 36233 ft 468 kts 274°
2026-05-05 22:25 57.96044 -30.10111 36246 ft 470 kts 274°
2026-05-05 22:25 57.96095 -30.34906 36248 ft 471 kts 273°
2026-05-05 22:26 57.96102 -30.54175 36251 ft 471 kts 273°
2026-05-05 22:26 57.96091 -30.66522 36242 ft 470 kts 273°
2026-05-05 22:27 57.96069 -30.78787 36238 ft 472 kts 272°
2026-05-05 22:27 57.96033 -30.91279 36240 ft 474 kts 272°
2026-05-05 22:28 57.95986 -31.03667 36239 ft 475 kts 272°
2026-05-05 22:28 57.95927 -31.16046 36241 ft 475 kts 272°
2026-05-05 22:29 57.95856 -31.28508 36241 ft 475 kts 272°
2026-05-05 22:29 57.95773 -31.40895 36291 ft 476 kts 272°
2026-05-05 22:29 57.95726 -31.47131 36507 ft 476 kts 271°
2026-05-05 22:30 57.95677 -31.53397 36735 ft 476 kts 271°
2026-05-05 22:30 57.95623 -31.59648 36957 ft 477 kts 271°
2026-05-05 22:30 57.95568 -31.65820 37156 ft 477 kts 271°
2026-05-05 22:30 57.95510 -31.72089 37361 ft 478 kts 271°
2026-05-05 22:31 57.95448 -31.78366 37562 ft 479 kts 271°
2026-05-05 22:31 57.95382 -31.84654 37772 ft 479 kts 271°
2026-05-05 22:31 57.95314 -31.90870 37985 ft 479 kts 271°
2026-05-05 22:31 57.95243 -31.97155 38190 ft 479 kts 271°
2026-05-05 22:32 57.95168 -32.03442 38237 ft 475 kts 271°
2026-05-05 22:32 57.95013 -32.15686 38234 ft 471 kts 271°
2026-05-05 22:33 57.94847 -32.28064 38244 ft 474 kts 270°
2026-05-05 22:33 57.94665 -32.40475 38239 ft 472 kts 270°
2026-05-05 22:34 57.94475 -32.52787 38236 ft 472 kts 270°
2026-05-05 22:34 57.94270 -32.65163 38237 ft 472 kts 270°
2026-05-05 22:35 57.94056 -32.77488 38234 ft 472 kts 270°
2026-05-05 22:35 57.93827 -32.89864 38235 ft 473 kts 269°
2026-05-05 22:36 57.93589 -33.02165 38240 ft 473 kts 269°
2026-05-05 22:36 57.93336 -33.14579 38242 ft 474 kts 269°
2026-05-05 22:37 57.93071 -33.26998 38244 ft 475 kts 269°
2026-05-05 22:37 57.92795 -33.39330 38245 ft 474 kts 269°
2026-05-05 22:38 57.92506 -33.51730 38240 ft 473 kts 269°
2026-05-05 22:38 57.92208 -33.64061 38238 ft 476 kts 268°
2026-05-05 22:39 57.91892 -33.76530 38241 ft 475 kts 268°
2026-05-05 22:39 57.91566 -33.88976 38234 ft 475 kts 268°
2026-05-05 22:40 57.91229 -34.01332 38239 ft 476 kts 268°
2026-05-05 22:40 57.90880 -34.13746 38241 ft 476 kts 268°
2026-05-05 22:41 57.90515 -34.26235 38244 ft 477 kts 268°
2026-05-05 22:41 57.90137 -34.38759 38239 ft 480 kts 267°
2026-05-05 22:42 57.89749 -34.51205 38233 ft 479 kts 267°
2026-05-05 22:42 57.89347 -34.63727 38232 ft 479 kts 267°
2026-05-05 22:43 57.88932 -34.76241 38235 ft 478 kts 267°
2026-05-05 22:43 57.88509 -34.88647 38234 ft 478 kts 267°
2026-05-05 22:44 57.88071 -35.01143 38218 ft 478 kts 266°
2026-05-05 22:44 57.87618 -35.13660 38229 ft 480 kts 266°
2026-05-05 22:45 57.87153 -35.26220 38239 ft 482 kts 266°
2026-05-05 22:45 57.86677 -35.38718 38238 ft 481 kts 266°
2026-05-05 22:46 57.86186 -35.51267 38235 ft 481 kts 265°
2026-05-05 22:46 57.85687 -35.63733 38234 ft 481 kts 265°
2026-05-05 22:47 57.85171 -35.76314 38233 ft 484 kts 265°
2026-05-05 22:47 57.84641 -35.88871 38232 ft 483 kts 265°
2026-05-05 22:48 57.84101 -36.01423 38228 ft 483 kts 264°
2026-05-05 22:48 57.83547 -36.13998 38224 ft 483 kts 264°
2026-05-05 22:49 57.82980 -36.26572 38225 ft 483 kts 264°
2026-05-05 22:49 57.82403 -36.39087 38231 ft 483 kts 264°
2026-05-05 22:50 57.81810 -36.51689 38222 ft 487 kts 264°
2026-05-05 22:50 57.81201 -36.64360 38223 ft 486 kts 264°
2026-05-05 22:51 57.80583 -36.76939 38227 ft 486 kts 264°
2026-05-05 22:51 57.79949 -36.89598 38228 ft 487 kts 263°
2026-05-05 22:52 57.79302 -37.02247 38220 ft 487 kts 263°
2026-05-05 22:52 57.78646 -37.14842 38216 ft 490 kts 263°
2026-05-05 22:53 57.77969 -37.27565 38211 ft 489 kts 263°
2026-05-05 22:53 57.77281 -37.40268 38213 ft 489 kts 263°
2026-05-05 22:54 57.76581 -37.52946 38200 ft 489 kts 262°
2026-05-05 22:54 57.75872 -37.65567 38207 ft 491 kts 262°
2026-05-05 22:55 57.75143 -37.78294 38214 ft 491 kts 262°
2026-05-05 22:55 57.74402 -37.91015 38201 ft 492 kts 262°
2026-05-05 22:56 57.73646 -38.03773 38202 ft 492 kts 262°
2026-05-05 22:56 57.72881 -38.16451 38197 ft 492 kts 262°
2026-05-05 22:57 57.72099 -38.29204 38198 ft 492 kts 262°
2026-05-05 22:57 57.71440 -38.39793 38190 ft 492 kts 261°
2026-05-05 22:58 57.70503 -38.54598 38187 ft 494 kts 261°
2026-05-05 22:58 57.69816 -38.65249 38176 ft 495 kts 261°
2026-05-05 22:59 57.68982 -38.78040 38177 ft 495 kts 261°
2026-05-05 22:59 57.68138 -38.90757 38178 ft 495 kts 261°
2026-05-05 23:00 57.66840 -39.09955 38175 ft 495 kts 260°
2026-05-05 23:00 57.65964 -39.22665 38163 ft 497 kts 259°
2026-05-05 23:01 57.65061 -39.35563 38165 ft 498 kts 259°
2026-05-05 23:01 57.64156 -39.48313 38163 ft 498 kts 259°
2026-05-05 23:02 57.63231 -39.61139 38161 ft 498 kts 259°
2026-05-05 23:02 57.62293 -39.73978 38152 ft 498 kts 259°
2026-05-05 23:03 57.61347 -39.86733 38151 ft 498 kts 259°
2026-05-05 23:03 57.60381 -39.99576 38152 ft 499 kts 259°
2026-05-05 23:04 57.59405 -40.12365 38147 ft 499 kts 259°
2026-05-05 23:04 57.58414 -40.25181 38150 ft 498 kts 259°
2026-05-05 23:05 57.57418 -40.37891 38133 ft 498 kts 259°
2026-05-05 23:05 57.56404 -40.50665 38135 ft 498 kts 258°
2026-05-05 23:06 57.55377 -40.63412 38121 ft 504 kts 258°
2026-05-05 23:06 57.54325 -40.76336 38117 ft 503 kts 258°
2026-05-05 23:07 57.53265 -40.89160 38112 ft 503 kts 258°
2026-05-05 23:07 57.52185 -41.02070 38115 ft 503 kts 258°
2026-05-05 23:08 57.51092 -41.14969 38107 ft 505 kts 258°
2026-05-05 23:08 57.49991 -41.27805 38114 ft 507 kts 257°
2026-05-05 23:09 57.48856 -41.40860 38094 ft 509 kts 257°
2026-05-05 23:09 57.47721 -41.53774 38092 ft 509 kts 257°
2026-05-05 23:10 57.46561 -41.66789 38084 ft 509 kts 257°
2026-05-05 23:10 57.45398 -41.79697 38088 ft 509 kts 257°
2026-05-05 23:11 57.44212 -41.92699 38087 ft 510 kts 257°
2026-05-05 23:11 57.43012 -42.05705 38075 ft 509 kts 256°
2026-05-05 23:12 57.41809 -42.18584 38083 ft 508 kts 256°
2026-05-05 23:12 57.40592 -42.31475 38069 ft 508 kts 256°
2026-05-05 23:13 57.39355 -42.44412 38065 ft 509 kts 256°
2026-05-05 23:13 57.38113 -42.57269 38058 ft 509 kts 256°
2026-05-05 23:14 57.36852 -42.70181 38052 ft 504 kts 256°
2026-05-05 23:14 57.35589 -42.82938 38043 ft 506 kts 256°
2026-05-05 23:15 57.34307 -42.95788 38043 ft 506 kts 256°
2026-05-05 23:15 57.33016 -43.08566 38039 ft 506 kts 256°
2026-05-05 23:16 57.31708 -43.21385 38043 ft 506 kts 255°
2026-05-05 23:16 57.30385 -43.34200 38047 ft 506 kts 255°
2026-05-05 23:17 57.29061 -43.46911 38028 ft 506 kts 255°
2026-05-05 23:17 57.27717 -43.59672 38019 ft 505 kts 255°
2026-05-05 23:18 57.26358 -43.72440 38018 ft 506 kts 255°
2026-05-05 23:18 57.24989 -43.85168 38016 ft 507 kts 255°
2026-05-05 23:19 57.23601 -43.97952 38036 ft 508 kts 255°
2026-05-05 23:19 57.22206 -44.10670 38008 ft 506 kts 255°
2026-05-05 23:20 57.20794 -44.23411 38007 ft 506 kts 255°
2026-05-05 23:20 57.19376 -44.36079 37996 ft 506 kts 255°
2026-05-05 23:21 57.17942 -44.48777 37995 ft 505 kts 255°
2026-05-05 23:21 57.16488 -44.61507 38007 ft 509 kts 255°
2026-05-05 23:22 57.15031 -44.74174 37988 ft 506 kts 254°
2026-05-05 23:22 57.13550 -44.86891 37989 ft 507 kts 254°
2026-05-05 23:23 57.12064 -44.99560 37983 ft 508 kts 254°
2026-05-05 23:23 57.10555 -45.12290 37985 ft 508 kts 254°
2026-05-05 23:24 57.09049 -45.24890 37974 ft 507 kts 254°
2026-05-05 23:24 57.07517 -45.37573 37973 ft 508 kts 254°
2026-05-05 23:25 57.05971 -45.50270 37959 ft 508 kts 254°
2026-05-05 23:25 57.04424 -45.62853 37961 ft 508 kts 253°
2026-05-05 23:26 57.02850 -45.75537 37945 ft 509 kts 253°
2026-05-05 23:26 57.01259 -45.88250 37942 ft 510 kts 253°
2026-05-05 23:27 56.99668 -46.00852 37931 ft 511 kts 253°
2026-05-05 23:27 56.98046 -46.13587 37934 ft 511 kts 253°
2026-05-05 23:28 56.96423 -46.26213 37933 ft 511 kts 253°
2026-05-05 23:28 56.94778 -46.38906 37938 ft 511 kts 253°
2026-05-05 23:29 56.93123 -46.51559 37930 ft 510 kts 253°
2026-05-05 23:29 56.91465 -46.64132 37918 ft 510 kts 253°
2026-05-05 23:30 56.89786 -46.76754 37909 ft 510 kts 253°
2026-05-05 23:30 56.88098 -46.89333 37912 ft 512 kts 253°
2026-05-05 23:31 56.86386 -47.01996 37888 ft 512 kts 252°
2026-05-05 23:31 56.84673 -47.14549 37886 ft 512 kts 252°
2026-05-05 23:32 56.82933 -47.27205 37898 ft 512 kts 252°
2026-05-05 23:32 56.81190 -47.39775 37874 ft 511 kts 252°
2026-05-05 23:33 56.79429 -47.52365 37854 ft 510 kts 252°
2026-05-05 23:33 56.77669 -47.64853 37852 ft 510 kts 252°
2026-05-05 23:34 56.75886 -47.77406 37853 ft 510 kts 252°
2026-05-05 23:34 56.74103 -47.89856 37841 ft 512 kts 252°
2026-05-05 23:35 56.72295 -48.02386 37838 ft 510 kts 252°
2026-05-05 23:35 56.70470 -48.14920 37830 ft 512 kts 252°
2026-05-05 23:36 56.68630 -48.27475 37829 ft 512 kts 252°
2026-05-05 23:36 56.66788 -48.39938 37811 ft 512 kts 252°
2026-05-05 23:37 56.64932 -48.52399 37812 ft 512 kts 252°
2026-05-05 23:37 56.63061 -48.64867 37793 ft 510 kts 252°
2026-05-05 23:38 56.61181 -48.77299 37784 ft 510 kts 251°
2026-05-05 23:38 56.59295 -48.89674 37772 ft 510 kts 251°
2026-05-05 23:39 56.57384 -49.02116 37786 ft 513 kts 251°
2026-05-05 23:39 56.55464 -49.14532 37777 ft 513 kts 251°
2026-05-05 23:40 56.53525 -49.26975 37768 ft 511 kts 251°
2026-05-05 23:40 56.51595 -49.39275 37755 ft 511 kts 251°
2026-05-05 23:41 56.49632 -49.51687 37757 ft 511 kts 251°
2026-05-05 23:41 56.47673 -49.63986 37741 ft 511 kts 251°
2026-05-05 23:42 56.45693 -49.76321 37743 ft 510 kts 251°
2026-05-05 23:42 56.43702 -49.88644 37728 ft 508 kts 251°
2026-05-05 23:43 56.41716 -50.00839 37730 ft 509 kts 251°
2026-05-05 23:43 56.39698 -50.13153 37718 ft 512 kts 251°
2026-05-05 23:44 56.37669 -50.25449 37717 ft 511 kts 250°
2026-05-05 23:44 56.35637 -50.37668 37704 ft 511 kts 250°
2026-05-05 23:45 56.33583 -50.49947 37699 ft 509 kts 250°
2026-05-05 23:45 56.31531 -50.62110 37690 ft 508 kts 250°
2026-05-05 23:46 56.29811 -50.72246 37693 ft 509 kts 250°
2026-05-05 23:46 56.27386 -50.86447 37681 ft 509 kts 250°
2026-05-05 23:47 56.25640 -50.96592 37674 ft 509 kts 250°
2026-05-05 23:47 56.23545 -51.08703 37677 ft 508 kts 250°
2026-05-05 23:48 56.21425 -51.20876 37663 ft 509 kts 250°
2026-05-05 23:48 56.19304 -51.32971 37651 ft 509 kts 250°
2026-05-05 23:49 56.17171 -51.45051 37652 ft 508 kts 250°
2026-05-05 23:49 56.15017 -51.57170 37641 ft 508 kts 249°
2026-05-05 23:50 56.12866 -51.69188 37654 ft 509 kts 250°
2026-05-05 23:50 56.10701 -51.81213 37630 ft 504 kts 249°
2026-05-05 23:51 56.08534 -51.93163 37631 ft 506 kts 250°
2026-05-05 23:51 56.06346 -52.05162 37632 ft 506 kts 249°
2026-05-05 23:52 56.04144 -52.17151 37619 ft 507 kts 249°
2026-05-05 23:52 56.01941 -52.29077 37621 ft 507 kts 249°
2026-05-05 23:53 55.99724 -52.41004 37611 ft 501 kts 249°
2026-05-05 23:53 55.97513 -52.52815 37614 ft 504 kts 249°
2026-05-05 23:54 55.95270 -52.64730 37616 ft 504 kts 249°
2026-05-05 23:54 55.93034 -52.76524 37615 ft 504 kts 249°
2026-05-05 23:55 55.90772 -52.88387 37605 ft 504 kts 249°
2026-05-05 23:55 55.88502 -53.00222 37605 ft 504 kts 248°
2026-05-05 23:56 55.86231 -53.11982 37597 ft 504 kts 248°
2026-05-05 23:56 55.83937 -53.23794 37599 ft 504 kts 249°
2026-05-05 23:57 55.81631 -53.35595 37593 ft 504 kts 249°
2026-05-05 23:57 55.79331 -53.47298 37583 ft 504 kts 248°
2026-05-05 23:58 55.77012 -53.59029 37562 ft 497 kts 248°
2026-05-05 23:58 55.74704 -53.70617 37578 ft 500 kts 249°
2026-05-05 23:59 55.72377 -53.82255 37580 ft 499 kts 248°
2026-05-05 23:59 55.70050 -53.93814 37582 ft 499 kts 248°
2026-05-06 00:00 55.67700 -54.05420 37574 ft 499 kts 248°
2026-05-06 00:00 55.65355 -54.16929 37565 ft 496 kts 248°
2026-05-06 00:01 55.63008 -54.28385 37556 ft 499 kts 248°
2026-05-06 00:01 55.60633 -54.39916 37557 ft 498 kts 248°
2026-05-06 00:02 55.58244 -54.51439 37557 ft 497 kts 248°
2026-05-06 00:02 55.55866 -54.62848 37554 ft 497 kts 248°
2026-05-06 00:03 55.53463 -54.74313 37556 ft 497 kts 248°
2026-05-06 00:03 55.51047 -54.85777 37557 ft 497 kts 248°
2026-05-06 00:04 55.48623 -54.97210 37555 ft 497 kts 248°
2026-05-06 00:04 55.46201 -55.08573 37552 ft 497 kts 248°
2026-05-06 00:05 55.42539 -55.25633 37550 ft 499 kts 248°
2026-05-06 00:06 55.38662 -55.43541 37545 ft 496 kts 248°
2026-05-06 00:06 55.33703 -55.66222 37545 ft 495 kts 248°
2026-05-06 00:07 55.28747 -55.88643 37551 ft 495 kts 248°
2026-05-06 00:07 55.23730 -56.11098 37549 ft 494 kts 248°
2026-05-06 00:08 55.18650 -56.33591 37546 ft 496 kts 248°
2026-05-06 00:08 55.13568 -56.55861 37547 ft 494 kts 248°
2026-05-06 00:09 55.08422 -56.78169 37543 ft 494 kts 247°
2026-05-06 00:09 55.03266 -57.00405 37543 ft 493 kts 251°
2026-05-06 00:10 54.99521 -57.23224 37547 ft 492 kts 253°
2026-05-06 00:10 54.95727 -57.46007 37545 ft 492 kts 253°
2026-05-06 00:11 54.91874 -57.68827 37540 ft 491 kts 253°
2026-05-06 00:11 54.87987 -57.91567 37532 ft 489 kts 253°
2026-05-06 00:12 54.84441 -58.12059 37523 ft 491 kts 253°
2026-05-06 00:12 54.82459 -58.23411 37521 ft 491 kts 253°
2026-05-06 00:13 54.80463 -58.34769 37500 ft 489 kts 253°
2026-05-06 00:13 54.78499 -58.45880 37496 ft 484 kts 252°
2026-05-06 00:14 54.76504 -58.57100 37499 ft 484 kts 252°
2026-05-06 00:14 54.74514 -58.68220 37495 ft 486 kts 252°
2026-05-06 00:15 54.72510 -58.79356 37498 ft 486 kts 252°
2026-05-06 00:15 54.70512 -58.90379 37496 ft 484 kts 252°
2026-05-06 00:16 54.68496 -59.01444 37485 ft 483 kts 252°
2026-05-06 00:16 54.66470 -59.12497 37490 ft 480 kts 252°
2026-05-06 00:17 54.64431 -59.23554 37492 ft 480 kts 252°
2026-05-06 00:17 54.62396 -59.34527 37500 ft 481 kts 252°
2026-05-06 00:18 54.60335 -59.45571 37501 ft 482 kts 251°
2026-05-06 00:18 54.58285 -59.56493 37497 ft 483 kts 251°
2026-05-06 00:19 54.56211 -59.67480 37498 ft 481 kts 251°
2026-05-06 00:19 54.54146 -59.78351 37494 ft 481 kts 251°
2026-05-06 00:20 54.52061 -59.89273 37510 ft 478 kts 251°
2026-05-06 00:20 54.50033 -60.00118 37510 ft 476 kts 257°
2026-05-06 00:21 54.48796 -60.11449 37519 ft 479 kts 259°
2026-05-06 00:21 54.47618 -60.22709 37515 ft 483 kts 259°
2026-05-06 00:22 54.46409 -60.33989 37504 ft 479 kts 259°
2026-05-06 00:22 54.45195 -60.45307 37521 ft 478 kts 259°
2026-05-06 00:23 54.43970 -60.56575 37523 ft 480 kts 259°
2026-05-06 00:23 54.42741 -60.67795 37522 ft 484 kts 259°
2026-05-06 00:24 54.41493 -60.79082 37524 ft 479 kts 259°
2026-05-06 00:24 54.40240 -60.90312 37526 ft 477 kts 258°
2026-05-06 00:25 54.38970 -61.01592 37530 ft 481 kts 258°
2026-05-06 00:25 54.37701 -61.12770 37528 ft 482 kts 258°